This is the latest recevied weather packets stored in our database for station/object KD9JJA. If no packets are shown the sender has not sent any weather packets the latest 10 day(s).
| Time | Temp. | Humidity | Pressure | Rain* | Wind** | Luminosity | Snow |
|---|---|---|---|---|---|---|---|
| 1777909383 | 18.89° C | 70% | 1009.5 hPa | 0 mm | - | 303 W/m² | - |
| 1777909081 | 18.89° C | 71% | 1009.7 hPa | 0 mm | - | 340 W/m² | - |
| 1777908779 | 18.33° C | 72% | 1009.6 hPa | 0 mm | - | 161 W/m² | - |
| 1777908475 | 18.33° C | 72% | 1009.9 hPa | 0 mm | - | 202 W/m² | - |
| 1777908172 | 18.33° C | 73% | 1010 hPa | 0 mm | - | 158 W/m² | - |
| 1777907868 | 18.33° C | 72% | 1009.8 hPa | 0 mm | - | 109 W/m² | - |
| 1777907564 | 18.33° C | 72% | 1009.9 hPa | 0 mm | - | 85 W/m² | - |
| 1777907260 | 18.33° C | 74% | 1010.1 hPa | 0 mm | - | 118 W/m² | - |
| 1777906956 | 18.33° C | 72% | 1009.7 hPa | 0 mm | - | 91 W/m² | - |
| 1777906654 | 18.33° C | 72% | 1009.5 hPa | 0 mm | - | 97 W/m² | - |
| 1777906350 | 18.33° C | 72% | 1009.9 hPa | 0 mm | - | 117 W/m² | - |
| 1777906047 | 17.78° C | 72% | 1009.4 hPa | 0 mm | - | 95 W/m² | - |
| 1777905743 | 17.78° C | 76% | 1009.6 hPa | 0 mm | - | 97 W/m² | - |
| 1777905441 | 17.78° C | 76% | 1010 hPa | 0 mm | - | 88 W/m² | - |
| 1777905139 | 17.22° C | 77% | 1009.9 hPa | 0 mm | - | 92 W/m² | - |
| 1777904835 | 17.22° C | 77% | 1010 hPa | 0 mm | - | 77 W/m² | - |
| 1777904533 | 17.22° C | 79% | 1009.8 hPa | 0 mm | - | 71 W/m² | - |
| 1777904229 | 17.22° C | 78% | 1010 hPa | 0 mm | - | 50 W/m² | - |
| 1777903926 | 17.22° C | 78% | 1009.6 hPa | 0 mm | - | 37 W/m² | - |
| 1777903623 | 17.22° C | 77% | 1009.8 hPa | 0 mm | - | 44 W/m² | - |
| 1777903318 | 17.22° C | 77% | 1009.9 hPa | 0 mm | - | 70 W/m² | - |
| 1777903016 | 16.67° C | 77% | 1010 hPa | 0 mm | - | 99 W/m² | - |
| 1777902712 | 16.67° C | 79% | 1010.4 hPa | 0 mm | - | 86 W/m² | - |
| 1777902409 | 16.67° C | 80% | 1010.4 hPa | 0 mm | - | 82 W/m² | - |
| 1777902105 | 16.67° C | 79% | 1010.4 hPa | 0 mm | - | 98 W/m² | - |
* Rain latest hour (hover to see other rain measurements)
** Current wind speed in m/s (hover to see current wind gust speed)